星链-34632 (STARLINK-34632)

导读 | 豆包AI

STARLINK-34632是美国SpaceX公司星链(Starlink)星座中的一颗低轨卫星,于2025年7月16日发射入轨。星链计划旨在构建覆盖全球的卫星互联网,为地面网络未覆盖或弱覆盖地区提供宽带服务。截至2025年8月,星链已部署超八千颗卫星,覆盖上百个国家和地区,用户突破700万,STARLINK-34632的发射进一步扩充了星链星座的网络容量,助力其实现更稳定的全球互联服务。

基本信息
目录编号:
64792
目录名称:
STARLINK-34632
国际标识:
2025-150C
轨道中心:
EARTH
卫星名称:
星链-34632
卫星全名:
星链-34632 (STARLINK-34632)
卫星状态:
在轨 (已飞行287 天)
发射日期:
2025-07-16 UTC
国别 :
美国 (US)
星等 :
--
轨道信息
数据来源 国际轨道数据 AOE轨道数据
星历时间 2026-04-29T08:22:54+0800
12小时前
查看轨道信息
2026-04-22T22:00:00+0800
6天前
查看轨道信息
半长轴 6950.184km 6950.145km
偏心率 0.0002661 0.0002969
轨道倾角 70.002° 70.001°
近地点辐角 270.386° 272.575°
升交点赤经 7.512° 23.730°
平近点角 89.700° 320.092°
近地点 570.197km 569.944km
远地点 573.897km 574.072km
周期 96.107分钟 96.106分钟
每日圈数 14.983331 14.983457
详细信息
固有亮度:
5
最大亮度:
2.5
卫星平台:
Starlink V1.0
覆盖范围:
全球
运营商:
太空探索技术公司
运营商所在国:
美国
制造商(研发单位):
太空探索技术公司
制造商所在国:
美国
使用方式:
暂无
卫星简介
Starlink 计划是 SpaceX 推出的全球卫星互联网项目,通过发射低轨道卫星,为全球尤其是偏远地区提供高速、低延迟的互联网服务。自 2019 年起,Starlink 已部署数千颗卫星,旨在缩小全球数字鸿沟,推动互联网普及。该项目还为军事、航空等行业提供通信支持,带来广泛经济效益。
2D轨道图
3D轨道图
轨道高度分析图
轨道倾角分析图
轨道综合分析图
查看轨道综合分析图